www.pogodaiklimat.ru

АРХИВ ПОГОДЫ в Лос-Анджелесе

Время (UTC), дата Ветер
(напр.,м/с)
 
Видим.   Явления Облачность Т
(С)
Тd
(С)
f
(%)
Тe
(С)
Тes
(С)
Комфортность

P
(гПа)

Po
(гПа)
Тmin
(С)
Tmax
(С)
R
(мм)
SD
(см)
21:53 20.01 З  16 км    2/2 1410 м
[средняя] 
+16.1  +1.7  38  +15  +16    1017.0  1012.6         
22:53 20.01 З  16 км    2/2 1410 м
[средняя] 
+16.7  +3.3  41  +15  +15    1017.1  1012.6         
23:53 20.01 З  5
{10} 
16 км    2/2 1410 м
[средняя] 
+16.0  +3.0  42  +15  +16    1017.4  1012.9  +14.4       
00:53 21.01 СЗ  16 км    2/0 2700 м
[средняя] 
+15.6  +5.0  49  +14  +14    1018.1  1013.6         
01:53 21.01 С  5
{10} 
16 км    2/2 1800 м
[средняя] 
+14.4  -4.4  27  +13  +13    1018.6  1013.9         
02:53 21.01 С  9
{13} 
16 км    2/2 1800 м  +13.9  -5.6  25  +11  +11    1019.0  1014.3         
03:53 21.01 С  6
{9} 
16 км    ясно  +13.0  -4.0  30  +11  +11    1019.6  1014.9         
04:53 21.01 СЗ  16 км    ясно  +12.8  -3.3  32  +11  +11    1020.7  1016.3         
05:53 21.01 СЗ  8
{11} 
16 км    ясно  +12.2  -3.3  34  +9  +9    1020.9  1016.3         
06:53 21.01 СЗ  16 км    ясно  +12.2  -3.3  34  +10  +10    1021.0  1016.6         
07:53 21.01 СЗ  16 км    ясно  +12.2  -3.3  34  +11  +11    1021.3  1016.6         
08:53 21.01 С  16 км    ясно  +11.7  -3.9  33  +11  +11    1021.4  1017.0         
09:53 21.01 С  16 км    ясно  +11.1  -4.4  33  +10  +10    1022.2  1017.6         
10:53 21.01 СВ  16 км    ясно  +8.3  -2.8  45  +7  +7    1022.3  1018.0         
11:53 21.01 штиль  16 км    ясно  +8.3  -3.3  44  +8  +8    1022.4  1018.0    +12.8     
12:53 21.01 В  16 км    ясно  +7.2  -2.8  49  +5  +5    1022.7  1018.3         
13:53 21.01 штиль  16 км    2/0 6000 м
[средняя] 
+6.7  -2.8  51  +6  +6    1023.1  1018.6         
14:53 21.01 СВ  16 км    2/0 6000 м
[средняя верхняя] 
+8.0  -3.0  46  +6  +6    1023.8  1019.3         
15:53 21.01 СВ  16 км    5/0 6000 м
[средняя верхняя] 
+10.0  -2.8  41  +9  +9    1024.7  1020.0         
16:53 21.01 СВ  16 км    5/0 8400 м
[верхняя] 
+12.2  -2.8  35  +11  +12    1025.8  1021.3         
17:53 21.01 В  16 км    8/0 8400 м
[верхняя] 
+13.9  -2.2  33  +13  +15    1026.4  1021.7         
18:53 21.01 В  16 км    8/0 8400 м
[верхняя] 
+15.0  -2.2  31  +15  +20    1026.5  1021.7         
19:53 21.01 нст  16 км    8/0 8400 м
[верхняя] 
+15.6  -1.7  30  +15  +20    1025.8  1021.0         
20:53 21.01 З  16 км    8/0 6600 м
[верхняя] 
+17.0  -1.0  29  +18  +25    1024.9  1020.3         
21:53 21.01 З  16 км    5/0 6600 м
[верхняя] 
+17.2  -2.2  27  +17  +21    1024.5  1020.0         
22:53 21.01 З  16 км    5/0 4500 м
[средняя верхняя] 
+17.0  0.0  32  +16  +19    1024.5  1019.7         
23:53 21.01 З   16 км    8/0 4500 м
[средняя верхняя] 
+16.0  0.0  34  +15  +15    1024.9  1020.0  +13.9  +17.2     
00:53 22.01 З   16 км    5/0 4500 м
[средняя верхняя] 
+14.0  +2.0  44  +12  +12    1024.9  1020.3         
01:53 22.01 З   16 км    5/0 4500 м
[средняя верхняя] 
+14.0  +3.0  47  +13  +13    1025.3  1020.7         
02:53 22.01 З   16 км    5/0 4500 м
[средняя верхняя] 
+14.0  +3.0  47  +12  +12    1025.3  1020.7         
03:53 22.01 ЮЗ  16 км    8/0 6000 м
[средняя] 
+13.9  +5.0  55  +13  +13    1025.3  1020.7         
04:53 22.01 С  16 км    5/0 4500 м
[средняя верхняя] 
+13.9  +2.2  45  +14  +14    1025.5  1021.0         
05:53 22.01 СЗ  16 км    5/0 4500 м
[средняя верхняя] 
+13.0  +1.0  44  +12  +12    1025.5  1021.0  +12.2       
06:53 22.01 СВ  16 км    5/0 4500 м
[средняя верхняя] 
+10.6  +1.7  54  +10  +10    1025.3  1020.7         
07:53 22.01 В  16 км    5/0 4500 м
[средняя верхняя] 
+11.0  0.0  47  +9  +9    1024.9  1020.3         
08:53 22.01 штиль  16 км    5/0 4500 м
[средняя верхняя] 
+11.0  -1.0  43  +11  +11    1024.5  1020.0         
09:53 22.01 В  16 км    5/0 4500 м
[средняя верхняя] 
+10.0  -0.6  48  +9  +9    1024.5  1020.0         
10:53 22.01 штиль  16 км    2/0 4500 м
[средняя верхняя] 
+8.9  0.0  54  +9  +9    1024.3  1020.0         
11:53 22.01 В  16 км    2/0 4500 м
[средняя верхняя] 
+8.0  +1.0  61  +7  +7    1024.3  1019.7  +7.8       
12:53 22.01 В  16 км    2/0 4500 м
[средняя верхняя] 
+8.3  -1.1  52  +7  +7    1024.0  1019.7         
13:53 22.01 штиль  16 км    2/0 7500 м
[верхняя] 
+8.3  -1.7  49  +8  +8    1024.3  1019.7         
14:53 22.01 СВ  16 км    2/0 2700 м
[средняя верхняя] 
+9.0  -3.0  43  +7  +7    1024.2  1019.7         
15:53 22.01 штиль  16 км    2/2 1500 м
[средняя] 
+11.7  -3.3  35  +12  +12    1024.5  1020.0         
16:53 22.01 СВ  16 км    2/2 1350 м
[средняя] 
+14.4  -3.9  28  +14  +15    1024.8  1020.3         
17:53 22.01 В  16 км    2/2 1800 м
[средняя] 
+16.0  -3.0  27  +17  +19    1024.9  1020.3  +7.8       
18:53 22.01 нст  16 км    2/0 7500 м
[верхняя] 
+17.2  -3.9  23  +18  +24    1024.7  1020.0         
19:53 22.01 штиль  16 км    2/0 8400 м
[верхняя] 
+18.9  -4.4  20  +19  +28    1023.4  1018.6         
20:53 22.01 З  16 км    ясно  +18.9  -1.7  25  +18  +21    1022.4  1017.6         

 

Местоположение метеостанции Los Angeles International Airport: широта 33.9381 долгота -118.3889 высота над уровнем моря 38 м.

В архиве по умолчанию представлена погода в Лос-Анджелесе за последние 1-2 суток. Обновление информации о фактической погоде в базе происходит ежечасно! Архивные данные за месяц целиком и за предыдущие месяцы Вы можете получить, выбрав интересующий диапазон дат из раскрывающегося списка и нажав кнопку "Ввод!".

Внимание! Архив погоды МЕТАР в базе сайта в настоящее время начинается c 1 января 2013 г. Нет смысла пытаться выбрать более раннюю дату.

Внимание! Время в таблицах - всемирное. Для получения местного времени необходимо прибавить поправку, которая в Лос-Анджелесе равна -8 ч.

Ветер - указаны скорость ветра в м/с и направление, откуда дует ветер: С - северный, СВ - северо-восточный, В - восточный, ЮВ - юго-восточный, Ю - южный, ЮЗ - юго-западный, З - западный, СЗ - северо-западный.
Видимость - горизонтальная дальность видимости в метрах или километрах. При видимости от 1 до 10 км при отсутствии осадков обычно наблюдается дымка, при ухудшении видимости до 1 км и менее - туман. В сухую погоду видимость может ухудшаться дымом, пылью или мглою.
Атмосферные явления - указаны явления, наблюдавшиеся в указанный момент времени.
Облачность - указаны через наклонную черту верхняя и нижняя облачность в баллах и высота нижней границы облаков в метрах. Внимание: облачность, как и прочие метеорологические величины в США измеряются автоматическими метеостанциями. Указанные значения в баллах носят условный характер и показывают процент времени, в течение которого, в среднем, лазерный луч высотомера отражался от облаков обратно.
T - Температура воздуха - температура, измеренная на высоте 2 м над землей.
Td - Температура точки росы - температура, при понижении до которой содержащийся в воздухе водяной пар достигнет насыщения.
f - Относительная влажность воздуха - влажноcть воздуха, измеренная на высоте 2 м над землей.
Te - Эффективная температура - температура, которую ощущает одетый по сезону человек в тени. Характеристика душности погоды. При расчете учитывается влияние влажности воздуха и скорости ветра на теплоощущения человека.
Tes - Эффективная температура на солнце - температура, которую ощущает человек, с поправкой на солнечный нагрев. Характеристика знойности погоды. Зависит от высоты солнца над горизонтом, облачности и скорости ветра. Ночью, в пасмурную погоду, а также при ветре 12 м/с и более поправка равна нулю.
P - Атмосферное давление - приведенное к уровню моря атмосферное давление.
Po - Атмосферное давление - измеренное на уровне метеостанции атмосферное давление.
Tmin - Минимальная температура - минимум температуры воздуха на высоте 2 м над землей.
Tmax - Максимальная температура - максимум температуры воздуха на высоте 2 м над землей.
R - Количество осадков - Количество выпавших осадков за 3 или 6 часов, мм.
SD - Снежный покров - Высота снежного покрова, см.